This demonstration page uses our WeatherBlox Daily Observations layout. Learn more.

Left ArrowRight Arrow

Hourly Observations for May 2, 2018

Temp ( °F °C ) Dew Point ( °F °C ) Humidity (%) Winds ( mph kmh ) Pressure ( in mb ) Visibility ( mi km ) Precip ( " mm )
12:51 am 00:51 Clear 61 16.1 33 0.6 35 35 NW 25 41 29.72 1007 10 16 0.00 0.00
1:51 am 01:51 Cloudy 60 15.6 34 1.1 38 38 NW 24 39 29.72 1007 10 16 0.00 0.00
2:51 am 02:51 Cloudy 57 13.9 36 2.2 45 45 NW 22 35 29.75 1007 10 16 0.00 0.00
3:51 am 03:51 Cloudy 58 14.4 35 1.7 42 42 N 7 11 29.72 1007 10 16 0.00 0.00
4:51 am 04:51 Cloudy 58 14.4 35 1.7 42 42 SSW 9 15 29.71 1006 10 16 0.00 0.00
5:51 am 05:51 Mostly Cloudy 54 12.2 41 5 62 62 W 5 7 29.74 1007 10 16 0.00 0.00
6:51 am 06:51 Cloudy 58 14.4 39 3.9 50 50 WNW 8 13 29.74 1007 10 16 0.00 0.00
7:51 am 07:51 Mostly Sunny 60 15.6 39 3.9 46 46 WNW 14 22 29.77 1008 10 16 0.00 0.00
8:51 am 08:51 Sunny 62 16.7 36 2.2 38 38 NW 14 22 29.77 1008 10 16 0.00 0.00
9:51 am 09:51 Mostly Sunny 64 17.8 35 1.7 34 34 NW 10 17 29.78 1009 10 16 0.00 0.00
10:51 am 10:51 Sunny 67 19.4 32 0 27 27 WNW 16 26 29.78 1008 10 16 0.00 0.00
11:51 am 11:51 Sunny 69 20.6 33 0.6 26 26 NW 20 31 29.78 1008 10 16 0.00 0.00
12:51 pm 12:51 Sunny 69 20.6 27 -2.8 21 21 N 8 13 29.79 1009 10 16 0.00 0.00
1:51 pm 13:51 Partly Cloudy 71 21.7 19 -7.2 14 14 SW 12 19 29.77 1008 10 16 0.00 0.00
2:51 pm 14:51 Partly Cloudy 73 22.8 21 -6.1 14 14 WNW 13 20 29.78 1008 10 16 0.00 0.00
3:51 pm 15:51 Mostly Sunny 72 22.2 24 -4.4 17 17 WNW 15 24 29.77 1008 10 16 0.00 0.00
4:51 pm 16:51 Sunny 70 21.1 23 -5 17 17 WNW 20 31 29.79 1009 10 16 0.00 0.00
5:51 pm 17:51 Sunny 67 19.4 24 -4.4 20 20 NW 16 26 29.82 1010 10 16 0.00 0.00
6:51 pm 18:51 Sunny 65 18.3 25 -3.9 22 22 NW 21 33 29.85 1011 10 16 0.00 0.00
7:51 pm 19:51 Clear 62 16.7 28 -2.2 28 28 NW 16 26 29.89 1012 10 16 0.00 0.00
8:51 pm 20:51 Clear 61 16.1 31 -0.6 32 32 NW 16 26 29.92 1013 10 16 0.00 0.00
9:51 pm 21:51 Clear 59 15 32 0 36 36 NW 14 22 29.93 1014 10 16 0.00 0.00
10:51 pm 22:51 Clear 58 14.4 31 -0.6 36 36 NNW 8 13 29.94 1014 10 16 0.00 0.00
11:51 pm 23:51 Clear 55 12.8 31 -0.6 40 40 NW 9 15 29.95 1014 10 16 0.00 0.00

Powered by AerisWeather